sat.trackr.live / text

‹ back to catalog

ZHUHAI-1 OVS-02

NORAD 43440 · 2018-040B

PAYLOAD ACTIVE UNKNOWN

§ Identity

Operator
Country
PRC
Launch date
2018-04-26
Launch site
JSC
Launch vehicle
Mass (kg)
RCS (m²)

External: N2YO · Heavens-Above · Gunter

§ Orbital elements

Epoch: 2026-05-25T04:45:14.097312Z

Period
94.45 min
Inclination
97.0405°
Eccentricity
0.0003384
Mean motion
15.24666930 rev/d
Perigee alt
489.5 km
Apogee alt
494.1 km
Semi-major
6,869.9 km
B*
2.8637e-4
RAAN
163.7959°
Arg perigee
16.6689°
Mean anomaly
343.4660°
Rev number
44,921

§ Raw data

ZHUHAI-1 OVS-021 43440U 18040B   26145.19807983  .00007011  00000+0  28637-3 0  99982 43440  97.0405 163.7959 0003384  16.6689 343.4660 15.24666930449214

JSON: /api/v1/satellites/43440 · /tle

For live sub-satellite position, see the globe view (requires WebGL).

§ Visibility from observer

Set your observer location to see the next 7 days of passes ≥ 10°. The values pass through the URL so the page stays shareable.

No JS? Fill the form by hand. The geolocation button needs JavaScript.

§ Radio — SatNOGS DB

ModeDescriptionDownlinkUplink
Downlink 401.440 MHz
BPSK Telemetry 2.207 GHz

2 transmitters · refreshed weekly from db.satnogs.org